Location: Kellogg
(38.0159°N, 90.0546°W)
Time: 19:55:46
(UTC+00:00)

S-56A Canister/Altair - Pass Details

Date: 19 September 2024
Orbit: 636 x 2487 km, 38.9° (Epoch: 04 October)

Event Time Altitude Azimuth Distance (km) Brightness Sun altitude
Rises 21:02:35 0° 199° (SSW) 2,931 11.1 33.1°
Reaches altitude 10° 21:05:51 10° 173° (S) 2,011 10.0 32.5°
Maximum altitude 21:08:13 14° 140° (SE) 1,793 9.4 32.1°
Drops below altitude 10° 21:10:42 10° 108° (ESE) 2,140 9.5 31.7°
Sets 21:14:23 0° 84° (E) 3,266 10.3 31.0°
